QPF
0.00 0.00 0.00 0.00 0.00 0.00 0.00 0.00 0.00 0.00 0.00 0.00 0.00 0.00 0.00 0.00 0.00 0.00 0.00 0.00 0.00 0.00 0.01 0.01 0.01 0.03 0.04 0.07 0.09 0.09 0.07 0.05 0.04 0.04 0.05 0.04 0.05 0.04 0.04 0.05 0.04 0.04 0.04 0.03
0.00 0.00 0.00 0.00 0.00 0.00 0.00 0.00 0.00 0.00 0.00 0.00 0.00 0.00 0.01 0.01 0.01 0.01 0.01 0.00 0.00 0.00 0.01 0.02 0.03 0.04 0.05 0.05 0.06 0.09 0.11 0.08 0.05 0.04 0.04 0.04 0.04 0.04 0.05 0.06 0.06 0.05 0.03 0.02
0.00 0.00 0.00 0.00 0.00 0.00 0.00 0.00 0.00 0.00 0.00 0.00 0.00 0.01 0.01 0.01 0.01 0.01 0.00 0.01 0.01 0.01 0.03 0.04 0.04 0.05 0.06 0.06 0.07 0.07 0.07 0.07 0.06 0.05 0.04 0.04 0.03 0.03 0.05 0.06 0.06 0.07 0.05 0.03
0.00 0.00 0.00 0.00 0.00 0.00 0.00 0.00 0.00 0.00 0.00 0.01 0.01 0.01 0.01 0.01 0.01 0.00 0.00 0.01 0.02 0.03 0.03 0.04 0.05 0.07 0.09 0.09 0.08 0.07 0.07 0.07 0.07 0.05 0.05 0.05 0.05 0.05 0.06 0.07 0.07 0.06 0.06 0.05
0.00 0.00 0.00 0.00 0.00 0.00 0.00 0.00 0.00 0.00 0.01 0.01 0.01 0.02 0.02 0.02 0.01 0.00 0.01 0.01 0.03 0.04 0.05 0.06 0.06 0.06 0.06 0.07 0.08 0.09 0.09 0.08 0.06 0.05 0.05 0.05 0.05 0.05 0.05 0.07 0.08 0.09 0.08 0.06
0.00 0.00 0.00 0.00 0.00 0.00 0.00 0.01 0.00 0.01 0.01 0.01 0.02 0.01 0.01 0.00 0.01 0.01 0.02 0.03 0.04 0.05 0.05 0.06 0.06 0.05 0.05 0.06 0.08 0.08 0.08 0.09 0.09 0.08 0.07 0.07 0.07 0.07 0.07 0.09 0.10 0.11 0.11 0.09
0.00 0.00 0.00 0.00 0.00 0.00 0.01 0.01 0.01 0.01 0.01 0.01 0.01 0.01 0.01 0.01 0.02 0.02 0.03 0.04 0.05 0.05 0.04 0.04 0.04 0.05 0.05 0.05 0.09 0.12 0.11 0.11 0.13 0.11 0.10 0.09 0.08 0.08 0.10 0.11 0.12 0.11 0.10 0.10
0.00 0.00 0.00 0.00 0.00 0.00 0.00 0.00 0.01 0.01 0.01 0.01 0.01 0.01 0.02 0.03 0.03 0.04 0.05 0.04 0.03 0.04 0.04 0.06 0.06 0.06 0.06 0.06 0.06 0.08 0.10 0.12 0.14 0.16 0.12 0.09 0.08 0.06 0.06 0.06 0.08 0.10 0.10 0.10
0.01 0.00 0.00 0.00 0.00 0.00 0.00 0.01 0.01 0.01 0.00 0.01 0.01 0.01 0.02 0.03 0.03 0.03 0.06 0.08 0.04 0.04 0.04 0.06 0.06 0.07 0.08 0.10 0.08 0.05 0.05 0.07 0.10 0.14 0.11 0.09 0.08 0.08 0.08 0.06 0.05 0.04 0.04 0.05
0.01 0.01 0.00 0.00 0.00 0.00 0.01 0.01 0.01 0.01 0.01 0.01 0.01 0.01 0.01 0.01 0.02 0.02 0.02 0.04 0.04 0.04 0.07 0.09 0.08 0.08 0.08 0.09 0.10 0.09 0.06 0.06 0.07 0.08 0.09 0.09 0.07 0.05 0.05 0.05 0.04 0.03 0.03 0.02
0.01 0.01 0.01 0.01 0.01 0.01 0.01 0.02 0.02 0.02 0.02 0.02 0.01 0.01 0.01 0.02 0.02 0.02 0.02 0.02 0.03 0.03 0.07 0.10 0.09 0.09 0.09 0.08 0.09 0.10 0.08 0.06 0.05 0.06 0.07 0.08 0.07 0.06 0.04 0.03 0.03 0.03 0.03 0.02
0.01 0.01 0.01 0.01 0.01 0.01 0.01 0.02 0.03 0.05 0.04 0.03 0.03 0.02 0.01 0.02 0.01 0.01 0.01 0.01 0.01 0.02 0.03 0.04 0.05 0.06 0.08 0.07 0.05 0.05 0.06 0.05 0.05 0.05 0.05 0.05 0.05 0.05 0.05 0.04 0.04 0.04 0.04 0.04
0.01 0.01 0.01 0.01 0.01 0.01 0.01 0.02 0.05 0.08 0.09 0.07 0.05 0.04 0.03 0.02 0.01 0.01 0.01 0.01 0.01 0.01 0.01 0.02 0.02 0.02 0.02 0.03 0.03 0.04 0.04 0.04 0.06 0.06 0.05 0.05 0.04 0.05 0.05 0.05 0.05 0.04 0.04 0.04
0.01 0.01 0.01 0.01 0.01 0.01 0.02 0.03 0.06 0.09 0.09 0.09 0.08 0.07 0.06 0.04 0.03 0.02 0.02 0.02 0.02 0.01 0.01 0.01 0.01 0.01 0.02 0.02 0.02 0.02 0.03 0.03 0.03 0.04 0.05 0.04 0.03 0.04 0.05 0.05 0.05 0.04 0.04 0.04
0.01 0.01 0.01 0.01 0.01 0.01 0.01 0.02 0.04 0.05 0.07 0.08 0.09 0.10 0.09 0.09 0.06 0.04 0.04 0.04 0.03 0.02 0.01 0.01 0.01 0.01 0.01 0.01 0.01 0.01 0.01 0.02 0.02 0.03 0.03 0.04 0.04 0.04 0.05 0.05 0.05 0.06 0.05 0.04
0.03 0.03 0.02 0.01 0.02 0.01 0.01 0.01 0.01 0.02 0.03 0.04 0.06 0.07 0.08 0.07 0.07 0.06 0.05 0.04 0.03 0.02 0.02 0.02 0.01 0.01 0.01 0.01 0.01 0.01 0.01 0.01 0.01 0.02 0.02 0.03 0.03 0.04 0.04 0.05 0.04 0.05 0.05 0.07
0.06 0.06 0.04 0.03 0.04 0.02 0.01 0.01 0.02 0.02 0.02 0.02 0.03 0.06 0.08 0.06 0.06 0.07 0.07 0.04 0.03 0.02 0.02 0.02 0.01 0.01 0.01 0.01 0.01 0.01 0.01 0.01 0.01 0.01 0.01 0.02 0.03 0.03 0.04 0.04 0.03 0.03 0.04 0.04
0.04 0.05 0.06 0.05 0.04 0.02 0.02 0.02 0.03 0.03 0.04 0.03 0.03 0.06 0.06 0.03 0.04 0.05 0.04 0.03 0.03 0.02 0.02 0.02 0.01 0.01 0.01 0.01 0.01 0.01 0.01 0.01 0.01 0.01 0.01 0.01 0.02 0.02 0.02 0.03 0.03 0.04 0.03 0.03
0.04 0.04 0.06 0.04 0.03 0.03 0.04 0.03 0.05 0.04 0.03 0.03 0.04 0.04 0.04 0.03 0.03 0.03 0.02 0.01 0.01 0.01 0.01 0.01 0.01 0.01 0.01 0.01 0.01 0.01 0.01 0.01 0.01 0.01 0.01 0.01 0.01 0.02 0.02 0.02 0.02 0.03 0.04 0.03
0.02 0.02 0.04 0.05 0.04 0.04 0.04 0.05 0.07 0.04 0.03 0.03 0.04 0.03 0.02 0.01 0.01 0.01 0.01 0.01 0.01 0.01 0.01 0.01 0.01 0.01 0.01 0.01 0.01 0.01 0.01 0.01 0.01 0.01 0.01 0.01 0.01 0.01 0.02 0.02 0.02 0.02 0.02 0.03
0.03 0.03 0.03 0.04 0.05 0.04 0.03 0.04 0.04 0.02 0.02 0.03 0.03 0.02 0.01 0.01 0.01 0.01 0.01 0.01 0.01 0.01 0.01 0.02 0.02 0.02 0.02 0.02 0.02 0.01 0.01 0.01 0.01 0.01 0.01 0.01 0.01 0.02 0.02 0.03 0.03 0.02 0.02 0.02
0.04 0.04 0.04 0.03 0.04 0.04 0.03 0.03 0.02 0.01 0.01 0.01 0.03 0.02 0.01 0.01 0.01 0.01 0.01 0.01 0.01 0.01 0.01 0.02 0.03 0.04 0.04 0.03 0.03 0.02 0.02 0.02 0.02 0.02 0.01 0.01 0.01 0.01 0.02 0.03 0.03 0.03 0.03 0.02
0.03 0.03 0.04 0.04 0.03 0.03 0.03 0.03 0.03 0.01 0.01 0.01 0.01 0.02 0.01 0.01 0.01 0.02 0.02 0.02 0.01 0.01 0.01 0.01 0.02 0.03 0.04 0.04 0.03 0.02 0.02 0.02 0.03 0.02 0.02 0.02 0.02 0.01 0.02 0.03 0.03 0.03 0.03 0.02
0.02 0.02 0.03 0.03 0.03 0.02 0.02 0.03 0.03 0.01 0.01 0.01 0.02 0.02 0.02 0.02 0.02 0.02 0.02 0.03 0.02 0.02 0.01 0.01 0.01 0.02 0.03 0.04 0.03 0.03 0.03 0.03 0.03 0.03 0.03 0.03 0.02 0.03 0.03 0.03 0.03 0.03 0.03 0.03
0.02 0.02 0.02 0.02 0.02 0.02 0.02 0.02 0.02 0.01 0.01 0.01 0.01 0.02 0.02 0.02 0.03 0.03 0.03 0.03 0.03 0.02 0.02 0.02 0.02 0.03 0.04 0.04 0.04 0.04 0.03 0.03 0.03 0.03 0.03 0.03 0.03 0.03 0.03 0.03 0.03 0.04 0.04 0.04
0.02 0.01 0.02 0.02 0.02 0.02 0.02 0.02 0.02 0.01 0.00 0.01 0.01 0.02 0.03 0.02 0.02 0.02 0.02 0.02 0.02 0.02 0.02 0.02 0.04 0.04 0.04 0.04 0.04 0.03 0.04 0.04 0.04 0.04 0.03 0.04 0.03 0.03 0.03 0.03 0.04 0.04 0.05 0.04
0.02 0.02 0.02 0.02 0.02 0.02 0.02 0.02 0.02 0.02 0.03 0.03 0.03 0.04 0.04 0.04 0.03 0.02 0.02 0.03 0.03 0.03 0.03 0.03 0.03 0.04 0.05 0.05 0.04 0.04 0.06 0.06 0.05 0.04 0.04 0.03 0.03 0.03 0.03 0.04 0.05 0.04 0.04 0.03
MSLP
1008.58 1008.84 1009.10 1009.37 1009.60 1009.76 1009.81 1009.72 1009.51 1009.17 1008.74 1008.27 1007.81 1007.41 1007.10 1006.89 1006.80 1006.79 1006.83 1006.91 1007.00 1007.09 1007.18 1007.30 1007.46 1007.70 1008.03 1008.46 1008.98 1009.56 1010.16 1010.75 1011.28 1011.75 1012.14 1012.46 1012.73 1012.98 1013.22 1013.49 1013.77 1014.06 1014.35 1014.61
1009.23 1009.40 1009.52 1009.60 1009.61 1009.56 1009.43 1009.22 1008.95 1008.64 1008.32 1008.00 1007.72 1007.49 1007.33 1007.23 1007.18 1007.15 1007.13 1007.09 1007.05 1007.00 1006.97 1006.98 1007.07 1007.24 1007.52 1007.91 1008.38 1008.91 1009.45 1009.99 1010.48 1010.92 1011.29 1011.63 1011.94 1012.24 1012.56 1012.90 1013.26 1013.62 1013.97 1014.27
1009.85 1009.92 1009.90 1009.80 1009.62 1009.38 1009.10 1008.81 1008.51 1008.24 1008.00 1007.82 1007.69 1007.62 1007.58 1007.55 1007.52 1007.46 1007.36 1007.22 1007.06 1006.89 1006.74 1006.65 1006.64 1006.74 1006.95 1007.26 1007.66 1008.10 1008.57 1009.03 1009.46 1009.85 1010.22 1010.57 1010.92 1011.30 1011.70 1012.14 1012.60 1013.05 1013.48 1013.84
1010.39 1010.34 1010.17 1009.90 1009.56 1009.18 1008.80 1008.44 1008.14 1007.91 1007.77 1007.70 1007.71 1007.75 1007.79 1007.82 1007.79 1007.70 1007.54 1007.31 1007.04 1006.76 1006.51 1006.33 1006.23 1006.24 1006.36 1006.58 1006.87 1007.21 1007.57 1007.92 1008.27 1008.61 1008.95 1009.31 1009.71 1010.16 1010.66 1011.20 1011.76 1012.31 1012.82 1013.25
1010.75 1010.56 1010.26 1009.85 1009.38 1008.91 1008.46 1008.08 1007.80 1007.63 1007.58 1007.62 1007.72 1007.85 1007.96 1008.02 1007.99 1007.87 1007.65 1007.35 1007.00 1006.65 1006.32 1006.05 1005.87 1005.80 1005.82 1005.93 1006.09 1006.30 1006.53 1006.77 1007.02 1007.28 1007.58 1007.94 1008.37 1008.88 1009.46 1010.09 1010.75 1011.39 1011.97 1012.47
1010.89 1010.57 1010.13 1009.62 1009.07 1008.54 1008.07 1007.70 1007.47 1007.38 1007.40 1007.53 1007.72 1007.91 1008.07 1008.15 1008.12 1007.97 1007.71 1007.37 1006.97 1006.56 1006.18 1005.86 1005.61 1005.46 1005.38 1005.37 1005.41 1005.48 1005.57 1005.68 1005.81 1005.99 1006.24 1006.57 1007.01 1007.55 1008.19 1008.89 1009.61 1010.32 1010.97 1011.52
1010.81 1010.36 1009.82 1009.23 1008.63 1008.09 1007.64 1007.32 1007.16 1007.14 1007.24 1007.44 1007.69 1007.93 1008.11 1008.20 1008.16 1008.00 1007.73 1007.37 1006.95 1006.52 1006.11 1005.76 1005.46 1005.24 1005.08 1004.96 1004.88 1004.82 1004.77 1004.74 1004.76 1004.84 1005.02 1005.31 1005.73 1006.27 1006.92 1007.65 1008.42 1009.17 1009.85 1010.44
1010.52 1009.97 1009.35 1008.73 1008.13 1007.61 1007.22 1006.97 1006.87 1006.93 1007.10 1007.36 1007.64 1007.90 1008.10 1008.18 1008.15 1007.98 1007.71 1007.35 1006.94 1006.51 1006.11 1005.74 1005.42 1005.15 1004.92 1004.72 1004.53 1004.34 1004.17 1004.02 1003.93 1003.91 1004.01 1004.24 1004.61 1005.12 1005.76 1006.48 1007.24 1007.99 1008.69 1009.30
1010.10 1009.47 1008.82 1008.19 1007.63 1007.17 1006.84 1006.67 1006.65 1006.77 1007.00 1007.28 1007.59 1007.85 1008.04 1008.12 1008.08 1007.92 1007.66 1007.32 1006.93 1006.53 1006.15 1005.79 1005.46 1005.17 1004.88 1004.61 1004.33 1004.05 1003.78 1003.53 1003.34 1003.24 1003.25 1003.41 1003.71 1004.17 1004.75 1005.42 1006.15 1006.88 1007.56 1008.17
1009.60 1008.94 1008.30 1007.70 1007.20 1006.81 1006.57 1006.47 1006.52 1006.68 1006.94 1007.24 1007.53 1007.79 1007.96 1008.03 1007.99 1007.84 1007.59 1007.29 1006.93 1006.57 1006.22 1005.88 1005.55 1005.24 1004.93 1004.60 1004.26 1003.92 1003.57 1003.25 1002.98 1002.79 1002.73 1002.81 1003.04 1003.41 1003.92 1004.52 1005.18 1005.86 1006.51 1007.10
1009.12 1008.47 1007.86 1007.32 1006.89 1006.58 1006.41 1006.38 1006.47 1006.66 1006.92 1007.21 1007.49 1007.72 1007.87 1007.92 1007.88 1007.74 1007.53 1007.25 1006.95 1006.62 1006.30 1005.98 1005.66 1005.34 1005.00 1004.64 1004.26 1003.87 1003.47 1003.10 1002.77 1002.53 1002.40 1002.41 1002.56 1002.85 1003.26 1003.77 1004.34 1004.95 1005.54 1006.11
1008.71 1008.09 1007.54 1007.07 1006.71 1006.48 1006.37 1006.38 1006.50 1006.70 1006.94 1007.21 1007.45 1007.65 1007.77 1007.82 1007.78 1007.66 1007.47 1007.24 1006.97 1006.68 1006.38 1006.07 1005.76 1005.42 1005.07 1004.69 1004.28 1003.85 1003.43 1003.02 1002.66 1002.38 1002.20 1002.14 1002.22 1002.41 1002.73 1003.14 1003.61 1004.13 1004.66 1005.18
1008.39 1007.83 1007.34 1006.95 1006.66 1006.48 1006.41 1006.44 1006.56 1006.74 1006.96 1007.19 1007.40 1007.57 1007.68 1007.72 1007.69 1007.59 1007.44 1007.24 1007.00 1006.74 1006.46 1006.15 1005.83 1005.48 1005.11 1004.71 1004.28 1003.83 1003.39 1002.97 1002.59 1002.28 1002.06 1001.95 1001.95 1002.05 1002.27 1002.57 1002.94 1003.36 1003.81 1004.26
1008.16 1007.67 1007.25 1006.91 1006.67 1006.53 1006.48 1006.51 1006.61 1006.77 1006.95 1007.14 1007.32 1007.46 1007.57 1007.61 1007.60 1007.54 1007.42 1007.25 1007.04 1006.79 1006.52 1006.21 1005.87 1005.50 1005.11 1004.68 1004.24 1003.79 1003.34 1002.91 1002.52 1002.20 1001.94 1001.78 1001.70 1001.72 1001.83 1002.02 1002.28 1002.59 1002.94 1003.32
1008.01 1007.57 1007.21 1006.91 1006.71 1006.58 1006.53 1006.55 1006.62 1006.74 1006.88 1007.04 1007.19 1007.32 1007.42 1007.48 1007.50 1007.46 1007.38 1007.24 1007.05 1006.81 1006.53 1006.22 1005.86 1005.47 1005.05 1004.61 1004.16 1003.70 1003.26 1002.83 1002.44 1002.10 1001.82 1001.60 1001.46 1001.39 1001.39 1001.46 1001.59 1001.78 1002.02 1002.31
1007.91 1007.52 1007.19 1006.92 1006.73 1006.60 1006.53 1006.52 1006.55 1006.63 1006.74 1006.86 1006.99 1007.11 1007.22 1007.29 1007.33 1007.32 1007.26 1007.15 1006.97 1006.74 1006.46 1006.13 1005.76 1005.36 1004.93 1004.49 1004.04 1003.59 1003.15 1002.74 1002.35 1002.00 1001.69 1001.42 1001.20 1001.03 1000.91 1000.85 1000.85 1000.91 1001.03 1001.21
1007.83 1007.47 1007.17 1006.91 1006.71 1006.56 1006.46 1006.41 1006.41 1006.44 1006.51 1006.60 1006.71 1006.82 1006.92 1007.01 1007.06 1007.06 1007.02 1006.92 1006.75 1006.53 1006.24 1005.91 1005.54 1005.14 1004.72 1004.29 1003.86 1003.44 1003.03 1002.63 1002.25 1001.89 1001.55 1001.22 1000.92 1000.65 1000.41 1000.22 1000.07 999.99 999.98 1000.04
1007.76 1007.42 1007.12 1006.86 1006.64 1006.47 1006.33 1006.24 1006.19 1006.17 1006.19 1006.25 1006.32 1006.41 1006.50 1006.57 1006.62 1006.63 1006.58 1006.48 1006.32 1006.10 1005.83 1005.51 1005.16 1004.78 1004.39 1004.01 1003.62 1003.24 1002.87 1002.50 1002.14 1001.77 1001.39 1001.01 1000.62 1000.24 999.88 999.55 999.26 999.04 998.90 998.85
1007.69 1007.35 1007.04 1006.77 1006.52 1006.31 1006.13 1005.99 1005.89 1005.82 1005.79 1005.79 1005.82 1005.86 1005.91 1005.96 1005.98 1005.97 1005.91 1005.80 1005.64 1005.43 1005.18 1004.89 1004.58 1004.26 1003.93 1003.61 1003.29 1002.98 1002.66 1002.34 1001.99 1001.61 1001.20 1000.76 1000.29 999.80 999.32 998.86 998.44 998.10 997.84 997.69
1007.57 1007.22 1006.90 1006.60 1006.33 1006.07 1005.85 1005.65 1005.49 1005.36 1005.27 1005.21 1005.17 1005.16 1005.15 1005.14 1005.12 1005.07 1004.99 1004.87 1004.71 1004.52 1004.30 1004.07 1003.82 1003.58 1003.33 1003.10 1002.87 1002.63 1002.38 1002.09 1001.76 1001.38 1000.94 1000.44 999.89 999.31 998.72 998.15 997.63 997.18 996.85 996.63
1007.35 1006.99 1006.65 1006.32 1006.01 1005.71 1005.44 1005.19 1004.96 1004.77 1004.60 1004.47 1004.36 1004.28 1004.21 1004.13 1004.06 1003.97 1003.86 1003.73 1003.58 1003.42 1003.25 1003.08 1002.92 1002.76 1002.61 1002.48 1002.33 1002.17 1001.98 1001.73 1001.42 1001.03 1000.56 1000.01 999.40 998.74 998.07 997.43 996.83 996.33 995.95 995.72
1006.98 1006.60 1006.22 1005.86 1005.50 1005.15 1004.82 1004.51 1004.22 1003.96 1003.73 1003.53 1003.35 1003.20 1003.06 1002.94 1002.82 1002.70 1002.57 1002.45 1002.33 1002.21 1002.09 1002.00 1001.92 1001.86 1001.81 1001.76 1001.69 1001.59 1001.45 1001.23 1000.92 1000.52 1000.02 999.44 998.78 998.07 997.36 996.68 996.06 995.55 995.18 994.97
1006.36 1005.94 1005.53 1005.11 1004.70 1004.30 1003.91 1003.54 1003.19 1002.87 1002.58 1002.32 1002.09 1001.89 1001.72 1001.56 1001.43 1001.30 1001.19 1001.10 1001.02 1000.96 1000.91 1000.90 1000.90 1000.91 1000.94 1000.95 1000.94 1000.88 1000.75 1000.54 1000.23 999.81 999.29 998.68 998.00 997.28 996.57 995.89 995.31 994.84 994.54 994.42
1005.42 1004.95 1004.47 1003.99 1003.52 1003.05 1002.59 1002.16 1001.76 1001.40 1001.07 1000.78 1000.53 1000.33 1000.16 1000.02 999.91 999.83 999.77 999.73 999.72 999.73 999.76 999.82 999.88 999.96 1000.03 1000.07 1000.07 1000.02 999.88 999.65 999.32 998.88 998.35 997.73 997.05 996.36 995.69 995.09 994.58 994.22 994.03 994.03
1004.12 1003.57 1003.01 1002.44 1001.88 1001.33 1000.81 1000.32 999.88 999.49 999.15 998.87 998.65 998.49 998.38 998.31 998.28 998.29 998.32 998.38 998.46 998.55 998.66 998.77 998.89 998.99 999.06 999.10 999.09 999.00 998.83 998.56 998.20 997.74 997.20 996.60 995.97 995.35 994.77 994.28 993.91 993.69 993.66 993.82
1002.45 1001.79 1001.12 1000.44 999.77 999.14 998.54 997.99 997.52 997.12 996.81 996.58 996.43 996.36 996.36 996.41 996.52 996.66 996.83 997.01 997.20 997.39 997.57 997.73 997.87 997.97 998.02 998.02 997.95 997.81 997.58 997.27 996.88 996.41 995.90 995.35 994.81 994.29 993.85 993.52 993.32 993.28 993.43 993.77
1000.48 999.68 998.87 998.05 997.27 996.52 995.84 995.25 994.75 994.37 994.10 993.94 993.90 993.97 994.12 994.34 994.61 994.93 995.25 995.58 995.89 996.18 996.43 996.62 996.77 996.85 996.86 996.80 996.67 996.46 996.18 995.83 995.43 994.99 994.52 994.07 993.65 993.29 993.02 992.88 992.88 993.04 993.38 993.90
Thickness
5750 5759 5762 5764 5765 5763 5758 5753 5746 5756 5761 5776 5783 5787 5791 5793 5792 5792 5791 5790 5789 5787 5785 5785 5784 5784 5783 5781 5780 5777 5772 5770 5769 5768 5767 5765 5762 5760 5758 5755 5753 5750 5747 5745
5743 5753 5755 5757 5763 5763 5762 5761 5759 5762 5765 5782 5784 5786 5786 5787 5787 5786 5786 5787 5786 5784 5781 5780 5780 5779 5777 5776 5775 5772 5768 5766 5765 5763 5762 5760 5758 5755 5753 5751 5748 5745 5743 5740
5721 5738 5744 5736 5753 5757 5758 5761 5761 5757 5768 5777 5777 5778 5779 5781 5783 5783 5782 5782 5781 5780 5779 5777 5777 5776 5773 5773 5771 5767 5764 5762 5761 5759 5757 5755 5753 5749 5747 5745 5743 5740 5738 5736
5707 5720 5711 5737 5762 5763 5758 5760 5764 5767 5770 5773 5775 5777 5779 5781 5780 5778 5779 5779 5778 5777 5775 5775 5774 5772 5770 5769 5766 5762 5759 5757 5756 5755 5752 5750 5747 5744 5742 5740 5738 5735 5733 5731
5693 5698 5711 5736 5752 5754 5750 5750 5762 5761 5765 5768 5772 5771 5770 5775 5777 5776 5776 5776 5775 5774 5773 5772 5771 5769 5765 5762 5760 5756 5753 5753 5752 5751 5748 5745 5742 5740 5737 5734 5732 5730 5728 5726
5689 5693 5696 5726 5750 5757 5752 5739 5758 5758 5758 5760 5762 5751 5758 5770 5771 5771 5771 5771 5770 5769 5768 5766 5765 5764 5760 5755 5752 5750 5749 5748 5747 5745 5742 5740 5737 5735 5733 5730 5727 5725 5722 5720
5686 5690 5702 5729 5743 5749 5727 5733 5752 5754 5754 5754 5753 5757 5762 5765 5764 5765 5764 5764 5764 5763 5761 5760 5758 5755 5752 5749 5746 5746 5744 5742 5740 5739 5737 5734 5732 5729 5727 5724 5720 5718 5716 5714
5677 5682 5695 5727 5732 5727 5729 5742 5745 5748 5750 5749 5751 5753 5756 5757 5757 5757 5756 5756 5755 5754 5752 5751 5750 5747 5744 5742 5742 5740 5738 5736 5735 5733 5732 5730 5726 5722 5720 5717 5713 5710 5707 5705
5684 5691 5708 5717 5723 5729 5732 5734 5738 5741 5745 5744 5744 5745 5746 5747 5748 5748 5748 5747 5746 5745 5743 5742 5740 5739 5736 5735 5735 5733 5730 5728 5727 5726 5724 5722 5719 5715 5712 5709 5706 5703 5700 5697
5682 5693 5703 5711 5717 5723 5727 5730 5735 5738 5740 5739 5737 5738 5737 5737 5739 5739 5739 5738 5737 5735 5733 5731 5731 5730 5729 5728 5726 5724 5722 5719 5718 5717 5715 5713 5711 5709 5705 5702 5699 5696 5693 5691
5676 5688 5696 5705 5709 5714 5719 5724 5728 5731 5733 5733 5731 5729 5728 5728 5729 5730 5730 5730 5729 5727 5724 5724 5723 5722 5721 5719 5717 5715 5713 5710 5709 5708 5706 5704 5702 5701 5699 5697 5694 5691 5688 5686
5671 5683 5685 5693 5702 5708 5711 5715 5719 5721 5722 5723 5722 5720 5719 5718 5719 5719 5719 5720 5719 5717 5715 5715 5714 5713 5712 5711 5709 5707 5703 5701 5699 5698 5696 5695 5692 5690 5691 5689 5687 5685 5683 5680
5677 5683 5684 5690 5696 5701 5703 5707 5711 5712 5712 5712 5712 5712 5711 5710 5710 5710 5710 5709 5709 5708 5707 5706 5706 5705 5704 5703 5701 5699 5696 5694 5692 5690 5688 5687 5684 5681 5679 5679 5678 5677 5675 5673
5674 5675 5676 5682 5686 5692 5695 5698 5700 5701 5702 5703 5702 5702 5701 5699 5699 5699 5699 5699 5700 5699 5699 5698 5697 5697 5697 5696 5694 5692 5690 5688 5685 5684 5682 5679 5677 5675 5673 5671 5669 5668 5667 5665
5668 5671 5672 5676 5680 5682 5685 5687 5687 5688 5690 5690 5692 5692 5691 5689 5688 5689 5690 5691 5690 5689 5688 5688 5688 5688 5689 5687 5686 5684 5682 5680 5678 5676 5674 5672 5670 5668 5666 5664 5662 5660 5659 5657
5661 5664 5666 5668 5670 5673 5676 5678 5678 5678 5680 5680 5681 5681 5682 5681 5680 5679 5680 5680 5679 5678 5678 5679 5679 5680 5680 5678 5676 5675 5673 5672 5670 5668 5666 5664 5662 5661 5658 5656 5654 5653 5651 5650
5654 5655 5659 5660 5662 5665 5668 5670 5671 5672 5672 5672 5672 5672 5672 5672 5670 5669 5669 5670 5670 5670 5670 5670 5670 5670 5670 5669 5668 5666 5664 5663 5662 5660 5658 5656 5654 5653 5651 5649 5647 5646 5644 5643
5652 5654 5657 5657 5657 5658 5660 5662 5663 5663 5663 5665 5665 5664 5663 5662 5661 5661 5660 5661 5660 5660 5661 5661 5662 5661 5661 5660 5659 5658 5656 5654 5652 5650 5649 5647 5646 5645 5643 5641 5640 5639 5637 5636
5646 5648 5649 5651 5652 5652 5652 5653 5655 5655 5656 5656 5656 5655 5655 5654 5654 5653 5652 5652 5652 5651 5651 5652 5652 5652 5652 5652 5651 5649 5648 5646 5644 5642 5641 5639 5638 5637 5636 5634 5634 5632 5631 5628
5639 5641 5642 5643 5645 5645 5644 5645 5647 5646 5647 5648 5647 5646 5645 5645 5646 5645 5645 5644 5644 5645 5645 5644 5643 5643 5643 5643 5642 5640 5639 5638 5637 5635 5634 5633 5631 5631 5630 5628 5627 5625 5623 5622
5631 5633 5634 5635 5636 5637 5638 5638 5639 5639 5639 5639 5639 5638 5637 5637 5637 5637 5636 5636 5638 5638 5637 5636 5634 5634 5634 5634 5633 5632 5631 5630 5629 5628 5627 5626 5625 5624 5623 5621 5620 5618 5616 5615
5623 5625 5626 5626 5627 5627 5629 5630 5631 5631 5631 5630 5630 5630 5629 5628 5629 5629 5629 5629 5630 5630 5629 5628 5627 5627 5626 5625 5625 5625 5624 5623 5622 5621 5620 5619 5618 5617 5616 5614 5612 5610 5608 5607
5615 5617 5618 5619 5618 5619 5620 5621 5621 5621 5621 5621 5621 5622 5621 5622 5622 5621 5620 5622 5622 5622 5622 5621 5620 5620 5619 5619 5619 5618 5617 5616 5615 5614 5614 5613 5612 5610 5609 5607 5605 5603 5601 5599
5607 5609 5611 5611 5611 5612 5612 5612 5612 5612 5613 5613 5615 5616 5615 5614 5614 5615 5615 5615 5615 5615 5615 5615 5614 5613 5612 5613 5612 5612 5611 5610 5609 5608 5607 5606 5604 5603 5601 5599 5597 5595 5593 5591
5601 5602 5604 5604 5604 5605 5605 5605 5606 5606 5607 5608 5610 5610 5610 5609 5608 5609 5609 5609 5609 5608 5609 5608 5607 5607 5607 5607 5606 5605 5605 5604 5603 5601 5600 5598 5597 5595 5593 5591 5590 5588 5585 5582
5593 5594 5596 5598 5599 5599 5599 5600 5600 5601 5601 5602 5603 5603 5603 5603 5604 5604 5604 5604 5603 5602 5602 5602 5602 5601 5602 5601 5600 5599 5599 5598 5596 5595 5593 5592 5590 5588 5585 5583 5581 5578 5576 5573
5584 5586 5588 5590 5592 5593 5594 5594 5594 5595 5596 5597 5597 5597 5598 5598 5598 5598 5598 5597 5597 5596 5596 5596 5596 5595 5595 5594 5593 5592 5591 5590 5589 5588 5586 5584 5582 5580 5578 5575 5572 5570 5567 5564